User: anonymous   Login
Location: Bothell
(47.7630°N, 122.2040°W)
Time: 18:51:34
(UTC-08:00)
Language:

Oscar 16 - Orbit

View from above orbital plane
View from above orbital plane
View from above satellite
View from above satellite

Ground track
Ground track

The orbit data is extracted from the following two-line orbital elements,

1 20439U 90005D   16340.78251671  .00000042  00000-0  31607-4 0  9990
2 20439  98.5905 275.5761 0011221  18.8864  10.8946 14.32659197403711
Epoch (UTC): 05 December 2016 18:46:49
Eccentricity: 0.0011221
inclination: 98.5905°
perigee height: 775 km
apogee height: 791 km
right ascension of ascending node: 275.5761°
argument of perigee: 18.8864°
revolutions per day: 14.32659197
mean anomaly at epoch: 10.8946°
orbit number at epoch: 40371

The dashed part of the orbit path shows where the satellite is in the earth's shadow,  

DLR